Dewpoint
30 29 29 31 38 39 41 42 41 44 47 47 48 46 49 52 52 53 53 53 53 54 54 54 54 53 55 56 59 61 63 65 67 68 68 69 68 69 69 69 68 68 67 68
28 28 30 33 37 42 43 40 41 45 48 46 49 45 47 50 52 51 53 53 53 53 53 54 54 54 55 56 59 61 63 64 66 66 67 68 68 68 69 69 69 69 69 69
27 29 31 36 43 41 40 39 40 41 47 51 48 42 46 50 49 52 55 54 53 53 53 53 54 55 56 56 58 61 62 63 64 66 68 69 69 69 69 69 69 70 70 70
26 29 30 35 41 40 36 41 41 45 42 38 49 37 40 45 48 48 48 54 54 54 54 54 55 56 57 57 59 61 63 64 65 67 67 67 66 66 67 67 69 69 70 70
25 30 29 35 39 40 36 38 40 41 40 45 47 39 38 47 41 46 49 52 54 55 55 54 55 56 58 59 60 61 65 64 65 67 68 67 67 67 68 68 68 68 69 69
23 26 22 26 33 38 38 38 39 40 38 34 39 41 38 41 44 45 46 48 52 56 56 56 57 58 58 60 61 62 65 66 67 67 68 67 67 67 67 68 68 68 69 69
12 14 19 25 26 38 37 34 31 32 34 33 41 43 40 42 48 45 48 51 54 58 57 57 57 58 58 59 61 63 64 65 70 69 68 69 69 69 68 68 69 69 69 69
12 18 21 25 27 32 36 33 29 27 28 33 41 35 37 46 51 52 55 55 58 59 58 56 57 59 60 62 62 63 65 67 67 69 70 71 64 62 65 69 64 66 69 69
12 13 17 22 17 34 33 32 34 34 37 32 34 41 45 48 45 50 53 56 57 58 59 57 58 60 61 62 67 65 68 69 71 72 72 70 68 64 69 70 67 67 69 71
8 7 8 10 14 32 31 36 32 33 29 28 33 37 35 41 43 46 55 54 57 59 59 55 56 57 59 61 70 71 71 71 71 70 69 69 69 70 70 69 69 68 67 69
9 8 10 8 9 9 34 35 35 35 33 27 27 30 42 40 42 43 47 53 55 57 59 59 57 56 68 71 71 71 70 69 69 68 68 67 68 68 69 68 69 68 68 67
7 6 4 6 6 16 27 33 34 29 31 33 31 29 44 45 46 48 47 50 56 57 59 61 65 65 69 70 70 69 68 67 68 67 65 65 65 65 65 66 66 66 68 68
7 5 3 3 3 18 19 26 33 32 36 33 30 27 48 48 50 52 49 52 60 58 64 67 68 68 68 68 68 68 67 67 64 64 65 66 66 67 67 66 67 67 67 66
10 5 5 4 3 17 14 25 28 28 27 28 31 28 40 45 49 51 51 56 61 61 65 66 66 66 67 66 66 67 67 65 64 64 66 66 66 65 65 65 65 65 65 65
8 5 6 6 7 17 22 23 25 24 24 25 25 33 33 41 48 50 51 59 63 63 65 66 65 65 65 66 67 67 65 65 65 66 66 65 64 64 63 62 62 61 61 61
15 9 9 10 16 21 17 21 23 26 26 26 28 33 41 50 51 48 54 61 63 64 65 65 65 64 64 65 65 64 66 67 66 65 64 63 62 62 61 59 58 57 56 56
28 16 13 11 15 20 14 16 21 25 26 31 29 32 48 49 49 46 51 62 63 64 64 64 64 63 65 65 64 65 66 66 65 64 64 63 62 60 59 56 54 54 53 54
29 23 20 18 19 12 16 25 26 25 37 42 38 39 44 45 50 50 48 62 63 64 64 65 64 64 66 66 66 66 66 65 64 64 63 62 60 58 56 54 53 52 51 53
28 23 20 17 14 16 17 30 34 33 29 44 41 44 49 54 55 56 54 61 64 65 65 65 65 65 66 66 66 66 64 64 62 61 59 59 58 56 54 53 51 51 49 51
35 26 21 21 14 13 22 45 47 45 29 43 45 46 50 52 47 54 59 61 63 65 66 65 65 66 66 66 65 64 62 61 60 59 57 56 55 53 52 50 50 50 49 49
37 38 29 24 18 23 44 47 47 30 28 47 45 48 50 48 51 55 59 60 62 64 65 66 66 66 65 65 64 62 61 60 58 56 54 52 54 53 51 48 48 48 48 48
39 37 38 41 33 27 48 45 36 42 49 51 50 53 50 51 53 57 59 61 63 64 64 65 65 65 65 64 62 61 60 58 56 54 52 49 50 52 50 48 47 47 48 48
39 44 39 42 41 48 51 48 50 50 49 53 53 53 51 51 55 59 60 62 63 63 63 63 63 62 61 61 60 59 57 56 54 52 51 50 49 49 49 48 48 47 47 46
48 50 44 43 43 46 49 50 52 52 50 51 54 54 51 46 58 61 62 62 61 60 61 61 61 59 58 57 56 55 54 53 52 50 49 48 48 47 47 46 48 48 46 45
46 48 44 42 42 44 44 50 52 52 53 54 52 56 55 59 60 61 61 60 59 58 59 60 58 56 54 53 52 50 50 50 48 46 45 45 43 41 42 43 41 41 45 43
49 42 39 38 42 45 46 49 53 52 52 55 53 57 61 60 60 61 60 59 58 56 56 56 55 53 51 48 47 47 47 46 45 44 45 45 42 43 43 39 39 42 42 41
Wind_Speed
4 3 7 14 14 9 8 5 6 3 7 3 5 6 15 11 6 14 19 21 21 23 25 17 20 21 21 19 21 23 22 22 19 15 14 12 18 13 14 12 16 17 15 15
1 8 11 6 5 8 8 7 3 4 6 1 2 10 9 12 8 14 15 22 25 21 16 17 17 19 22 24 24 21 24 20 22 18 15 9 10 7 9 13 16 17 16 14
7 10 6 3 7 11 7 5 1 1 4 6 5 10 6 3 7 11 6 9 12 23 21 18 21 23 19 20 23 26 25 26 23 18 9 6 5 3 5 10 12 16 15 15
6 9 9 3 13 8 5 8 6 11 3 3 3 6 11 2 12 11 8 6 8 14 16 18 22 20 24 26 21 24 23 28 22 19 19 20 20 20 15 12 10 10 13 15
8 4 3 4 13 12 7 11 7 7 1 1 2 1 8 5 10 3 5 11 14 11 21 21 23 22 21 17 16 19 18 24 20 19 22 22 20 16 10 7 9 9 8 10
9 2 2 3 3 18 6 8 8 6 3 6 6 8 9 8 5 4 3 10 18 18 20 19 20 18 18 16 16 17 18 24 22 22 20 22 22 18 14 8 8 9 8 8
6 8 4 5 6 3 5 4 2 2 3 8 4 8 16 10 9 5 15 16 18 14 20 18 22 19 19 18 16 17 21 20 5 11 20 21 9 11 5 7 5 4 6 7
11 12 8 5 12 13 13 12 7 4 6 6 3 8 7 8 9 9 16 15 14 13 20 24 24 25 15 5 13 22 17 19 23 22 11 19 24 19 22 8 13 6 7 8
9 7 4 6 2 6 4 10 3 9 3 1 4 6 11 9 10 6 16 14 14 17 19 13 5 7 5 4 6 11 16 16 8 2 6 8 24 26 18 21 10 5 5 6
8 5 6 4 5 3 8 12 6 2 6 5 4 6 14 11 19 15 17 16 16 13 14 6 4 9 7 1 2 2 7 5 10 13 14 14 11 4 8 10 8 4 4 7
7 5 6 1 7 9 5 6 4 6 5 8 6 9 13 24 27 18 3 2 5 10 6 4 6 3 8 4 5 6 10 12 16 20 16 15 12 10 12 12 10 8 6 6
14 6 18 19 7 2 3 12 10 8 10 3 4 8 11 23 10 9 7 4 4 2 5 8 9 10 10 8 11 11 12 15 16 16 18 17 13 11 12 11 8 6 8 9
14 7 13 14 8 2 6 6 7 8 7 12 10 8 4 12 12 11 10 9 4 5 10 12 13 12 12 12 12 14 13 13 13 14 17 16 15 14 14 14 13 10 10 10
19 8 11 21 14 2 9 5 12 9 10 11 14 15 10 22 22 18 13 8 8 9 8 9 12 12 11 11 12 13 11 11 10 13 15 15 14 14 14 14 14 13 11 11
9 15 14 11 11 7 7 10 4 11 9 11 23 22 22 31 25 21 17 14 15 14 14 14 16 15 13 13 12 12 12 9 10 14 14 13 12 11 13 14 13 13 13 12
2 4 8 7 10 9 5 11 10 6 5 13 8 18 7 13 17 16 18 23 22 19 19 16 16 17 15 13 13 13 11 11 13 13 12 11 11 11 11 11 11 11 10 10
2 3 3 9 4 6 6 7 7 7 5 7 9 18 15 16 26 27 23 27 29 25 23 21 21 18 17 19 18 18 16 15 14 14 10 9 9 10 9 8 9 9 8 7
2 3 4 6 1 12 8 2 6 7 4 7 13 12 20 20 12 21 19 25 25 23 21 19 19 17 18 17 18 18 17 15 17 13 10 9 8 8 7 7 7 6 5 5
3 6 1 4 7 6 6 5 3 2 8 6 8 11 11 20 14 7 17 18 24 25 23 24 22 21 20 21 17 19 17 15 15 14 11 8 7 7 6 4 4 4 4 3
10 7 5 4 5 10 4 11 9 7 7 7 10 19 23 19 18 9 20 21 19 19 22 22 21 21 22 18 20 20 18 15 12 12 11 8 7 6 4 2 3 2 2 2
7 5 2 4 5 4 5 17 7 7 6 8 14 21 23 16 9 11 22 24 31 31 27 22 22 23 20 20 20 18 17 14 14 14 11 7 5 5 2 2 2 2 3 5
2 5 3 1 2 4 10 3 4 4 9 8 9 11 20 19 15 16 16 16 21 23 24 21 22 18 17 19 19 17 14 12 14 13 9 6 4 5 2 2 3 3 5 6
2 3 2 4 3 4 4 5 10 9 10 5 9 15 18 11 11 14 17 19 19 21 21 19 24 21 15 15 18 20 15 15 12 11 9 6 3 2 3 5 7 7 4 7
3 5 4 4 2 14 10 12 8 5 2 5 5 8 3 6 12 14 17 18 21 20 26 23 24 21 18 16 16 18 15 13 13 10 6 3 1 4 5 4 4 5 7 7
5 9 5 8 16 15 16 10 8 12 8 4 4 5 6 9 7 13 17 18 18 21 20 21 23 22 20 18 18 14 13 13 11 7 4 3 3 1 4 6 5 2 4 5
10 10 10 9 6 4 7 3 10 4 5 7 13 12 13 16 13 8 11 16 21 22 21 21 19 23 19 18 16 13 11 11 11 9 5 2 1 2 5 3 6 9 7 9
Wind_Direction
12 44 257 255 223 247 219 159 124 207 180 183 186 179 180 174 186 194 202 206 211 213 222 225 215 197 199 199 199 201 197 202 185 190 199 213 223 225 225 223 239 238 232 232
340 269 267 291 222 203 192 173 142 124 146 254 266 253 215 188 196 204 228 213 215 222 225 227 219 202 197 201 202 200 204 195 198 200 208 197 201 225 222 215 228 242 238 234
206 239 327 207 166 163 218 182 33 350 136 42 337 295 224 201 187 191 174 218 236 213 217 224 220 213 205 204 205 204 204 202 201 201 180 168 161 210 205 229 236 240 235 227
233 264 251 241 183 184 210 154 69 127 143 312 346 288 303 271 246 207 190 217 256 227 213 216 220 212 215 218 208 210 204 207 209 191 200 208 215 220 226 230 226 232 226 231
217 205 318 198 195 186 211 236 151 180 104 49 239 264 266 5 308 319 225 204 217 211 208 214 219 214 218 231 225 219 205 213 207 210 207 210 220 229 223 223 248 264 261 245
238 304 289 215 264 200 209 94 91 74 89 276 239 204 271 326 317 8 246 205 192 191 192 204 211 207 222 224 225 219 216 222 214 206 212 214 218 221 233 239 253 266 264 251
287 268 245 196 249 150 214 105 128 112 175 235 151 192 250 294 286 194 209 199 190 190 180 179 196 196 217 229 221 221 226 233 241 236 214 218 215 4 319 240 264 259 290 291
223 250 208 194 206 206 193 180 184 233 202 187 59 238 258 238 254 233 261 190 182 183 185 194 198 188 172 206 223 212 217 217 210 229 259 73 49 355 305 342 293 311 296 284
172 238 262 192 167 169 196 219 195 114 68 174 215 274 288 233 254 215 207 175 178 196 200 189 42 111 139 103 336 245 212 220 208 212 359 58 150 198 220 235 230 283 278 277
205 257 234 283 176 104 200 154 177 77 195 229 261 269 227 233 209 211 169 190 195 205 213 114 104 69 66 95 292 177 179 149 93 88 81 89 96 122 192 146 142 131 63 68
155 197 253 205 203 226 151 186 81 127 141 198 198 251 217 220 210 210 183 140 264 192 195 206 126 91 88 91 113 104 104 99 90 96 99 87 79 89 98 97 96 89 81 89
184 186 239 244 238 196 210 199 171 197 219 213 184 264 226 221 160 148 192 268 282 134 103 131 122 118 114 122 117 132 109 88 86 96 101 104 105 97 85 81 83 95 81 78
169 215 251 281 311 84 206 190 197 128 119 199 191 248 271 220 153 170 195 239 250 140 126 123 115 121 131 141 126 95 88 95 97 101 104 98 93 92 86 78 76 77 68 59
155 160 197 232 239 170 294 243 193 188 209 207 220 245 241 220 205 194 198 190 177 151 146 135 120 129 137 118 115 111 110 104 101 92 83 78 84 81 78 73 67 66 62 61
170 192 193 221 230 200 248 279 177 204 228 194 241 216 225 217 197 189 185 167 153 165 162 161 156 160 147 140 132 123 111 109 102 96 87 87 85 84 81 72 68 64 62 58
334 178 189 213 220 230 258 301 308 277 211 244 255 227 250 123 139 166 166 162 165 174 171 169 170 165 152 144 139 134 147 143 122 109 105 105 96 82 74 73 66 61 54 50
46 98 135 264 272 258 243 258 281 285 251 202 236 234 158 163 173 171 170 173 174 178 177 173 177 164 161 170 166 165 156 136 125 122 123 114 104 95 79 67 64 57 51 61
184 103 167 258 83 256 240 215 261 248 254 255 257 229 183 181 162 167 178 174 177 176 172 176 169 173 176 170 164 156 144 138 134 137 134 117 118 111 90 69 58 51 47 62
181 138 181 224 238 294 290 55 27 340 289 273 235 164 143 119 104 131 178 181 174 176 175 177 177 171 167 170 155 142 142 147 143 141 115 108 106 105 98 79 48 41 48 51
68 70 178 185 217 256 271 323 318 307 239 215 170 162 145 138 167 192 171 168 168 173 165 163 167 164 158 154 145 145 152 153 145 123 115 112 120 118 106 66 21 17 35 15
352 8 225 219 237 264 315 318 308 173 219 322 186 164 153 170 190 167 169 181 172 168 163 162 159 161 155 146 147 151 153 154 133 121 119 119 133 153 148 35 357 330 339 343
38 359 357 50 278 264 359 21 208 296 310 211 166 177 185 167 168 164 173 161 147 146 144 145 141 141 138 144 145 141 139 139 129 127 133 141 139 171 176 276 300 315 332 333
176 167 261 219 269 290 306 280 283 297 273 231 172 175 186 166 168 164 154 145 137 135 133 133 136 130 130 134 140 140 145 140 140 140 158 166 162 204 250 274 292 303 324 320
204 163 216 312 269 254 273 306 274 316 336 274 237 219 258 172 147 135 141 142 137 136 135 132 127 131 128 132 129 131 143 149 151 152 148 148 233 313 308 311 326 309 306 294
191 165 189 255 280 282 281 250 301 334 333 177 177 47 15 53 110 141 152 140 130 127 124 128 130 130 132 132 125 130 136 146 144 135 134 109 101 37 30 62 21 318 267 247
191 184 178 222 203 234 279 314 313 312 300 297 176 141 101 113 123 133 149 142 135 135 132 126 130 127 134 130 127 133 139 142 140 131 121 102 45 342 68 96 87 66 63 115